| time (UTC) | temp C | wind direction | speed KPH | gust KPH | rain 1hr cm | rain 24hr cm | rain mn cm | humidity % | barometer mb |
| 20260507095537 | 5 | 192 | 3.2 | 4.8 | 0.00 | 1.63 | 0.00 | 99 | 1003.7 |
| 20260507094526 | 5 | 195 | 3.2 | 4.8 | 0.00 | 1.63 | 0.00 | 99 | 1003.5 |
| 20260507093530 | 5 | 197 | 3.2 | 4.8 | 0.00 | 1.63 | 0.00 | 99 | 1003.7 |
| 20260507092515 | 5 | 228 | 3.2 | 4.8 | 0.00 | 1.63 | 0.00 | 99 | 1003.9 |
| 20260507091539 | 5 | 209 | 1.6 | 3.2 | 0.00 | 1.63 | 0.00 | 99 | 1004.2 |
| 20260507090523 | 5 | 220 | 1.6 | 3.2 | 0.00 | 1.63 | 0.00 | 99 | 1004.1 |
| 20260507085547 | 5 | 198 | 3.2 | 3.2 | 0.00 | 1.63 | 0.00 | 99 | 1004.2 |
| 20260507084530 | 5 | 190 | 1.6 | 4.8 | 0.00 | 1.63 | 0.00 | 99 | 1004.2 |
| 20260507083516 | 5 | 225 | 3.2 | 4.8 | 0.00 | 1.63 | 0.00 | 99 | 1004.2 |
| 20260507082519 | 5 | 247 | 1.6 | 3.2 | 0.00 | 1.63 | 0.00 | 99 | 1004.3 |
| 20260507081523 | 5 | 254 | 0.0 | 3.2 | 0.00 | 1.63 | 0.00 | 99 | 1004.3 |
| 20260507080527 | 5 | 0.0 | 0.0 | 0.00 | 1.63 | 0.00 | 99 | 1004.1 | |
| 20260507075530 | 5 | 0.0 | 0.0 | 0.00 | 1.63 | 0.00 | 99 | 1004.2 | |
| 20260507074516 | 5 | 225 | 1.6 | 3.2 | 0.00 | 1.63 | 0.00 | 99 | 1004.2 |
| 20260507073520 | 5 | 0.0 | 0.0 | 0.00 | 1.63 | 0.00 | 99 | 1004.3 | |
| 20260507072523 | 5 | 249 | 1.6 | 4.8 | 0.00 | 1.63 | 0.00 | 99 | 1004.4 |
| 20260507071527 | 5 | 0.0 | 0.0 | 0.00 | 1.63 | 0.00 | 99 | 1004.4 | |
| 20260507070551 | 5 | 0.0 | 0.0 | 0.00 | 1.63 | 0.00 | 99 | 1004.4 | |
| 20260507065516 | 5 | 0.0 | 0.0 | 0.00 | 1.63 | 0.00 | 99 | 1004.4 | |
| 20260507064520 | 4 | 0.0 | 0.0 | 0.00 | 1.63 | 0.00 | 99 | 1004.6 | |
| 20260507063523 | 4 | 0.0 | 0.0 | 0.00 | 1.63 | 0.00 | 99 | 1004.7 | |
| 20260507062527 | 4 | 0.0 | 0.0 | 0.00 | 1.63 | 0.00 | 99 | 1004.7 | |
| 20260507061525 | 4 | 0.0 | 0.0 | 0.00 | 1.63 | 0.00 | 99 | 1004.7 | |
| 20260507060516 | 4 | 0.0 | 0.0 | 0.00 | 1.63 | 0.00 | 99 | 1004.9 | |
| 20260507055520 | 5 | 0.0 | 0.0 | 0.00 | 1.63 | 0.00 | 99 | 1005.1 | |
| 20260507054517 | 5 | 203 | 0.0 | 3.2 | 0.00 | 1.63 | 0.00 | 99 | 1004.9 |
| 20260507053515 | 5 | 0.0 | 1.6 | 0.00 | 1.63 | 0.00 | 99 | 1005.1 | |
| 20260507052551 | 5 | 0.0 | 0.0 | 0.00 | 1.63 | 0.00 | 99 | 1005.2 | |
| 20260507051517 | 5 | 211 | 1.6 | 3.2 | 0.00 | 1.63 | 0.00 | 98 | 1005.4 |
| 20260507050520 | 5 | 214 | 3.2 | 4.8 | 0.00 | 1.63 | 0.00 | 98 | 1005.3 |
| 20260507045604 | 5 | 158 | 1.6 | 3.2 | 0.00 | 1.63 | 0.00 | 98 | 1005.3 |
| 20260507044528 | 5 | 165 | 0.0 | 3.2 | 0.00 | 1.63 | 0.00 | 98 | 1005.4 |
| 20260507043551 | 6 | 194 | 1.6 | 4.8 | 0.00 | 1.63 | 0.00 | 98 | 1005.3 |
| 20260507042517 | 6 | 221 | 3.2 | 8.0 | 0.00 | 1.63 | 0.00 | 98 | 1005.3 |
| 20260507041521 | 6 | 237 | 4.8 | 9.7 | 0.00 | 1.63 | 0.00 | 98 | 1005.5 |
| 20260507040524 | 6 | 267 | 4.8 | 8.0 | 0.00 | 1.63 | 0.00 | 98 | 1005.4 |
| 20260507035528 | 6 | 242 | 4.8 | 6.4 | 0.00 | 1.63 | 0.00 | 98 | 1005.7 |
| 20260507034531 | 5 | 215 | 3.2 | 6.4 | 0.00 | 1.63 | 0.00 | 98 | 1005.9 |
| 20260507033517 | 5 | 186 | 3.2 | 6.4 | 0.00 | 1.63 | 0.00 | 98 | 1005.8 |
| 20260507032521 | 5 | 218 | 3.2 | 4.8 | 0.00 | 1.63 | 0.00 | 98 | 1005.8 |
| 20260507031524 | 5 | 210 | 3.2 | 4.8 | 0.00 | 1.63 | 0.00 | 98 | 1005.9 |
| 20260507030528 | 5 | 247 | 3.2 | 6.4 | 0.00 | 1.63 | 0.00 | 98 | 1005.7 |
| 20260507025531 | 5 | 225 | 4.8 | 8.0 | 0.00 | 1.63 | 0.00 | 98 | 1005.8 |
| 20260507024517 | 5 | 203 | 3.2 | 4.8 | 0.00 | 1.63 | 0.00 | 98 | 1006.0 |
| 20260507023521 | 5 | 244 | 3.2 | 4.8 | 0.00 | 1.63 | 0.00 | 98 | 1005.9 |
| 20260507022524 | 5 | 221 | 3.2 | 4.8 | 0.00 | 1.63 | 0.00 | 98 | 1005.9 |
| 20260507021528 | 5 | 211 | 3.2 | 4.8 | 0.00 | 1.63 | 0.00 | 97 | 1006.0 |
| 20260507020526 | 6 | 194 | 1.6 | 3.2 | 0.00 | 1.63 | 0.00 | 97 | 1005.9 |
| 20260507015517 | 6 | 195 | 3.2 | 4.8 | 0.00 | 1.63 | 0.00 | 97 | 1005.8 |
| 20260507014521 | 5 | 214 | 3.2 | 4.8 | 0.00 | 1.63 | 0.00 | 97 | 1005.6 |
| 20260507013519 | 6 | 135 | 0.0 | 1.6 | 0.00 | 1.65 | 0.00 | 97 | 1005.8 |
| 20260507012516 | 6 | 193 | 3.2 | 3.2 | 0.00 | 1.73 | 0.00 | 97 | 1005.9 |
| 20260507011532 | 6 | 240 | 3.2 | 4.8 | 0.00 | 1.83 | 0.00 | 97 | 1005.9 |
| 20260507010557 | 5 | 241 | 3.2 | 4.8 | 0.00 | 1.83 | 0.00 | 96 | 1005.8 |
| 20260507005521 | 6 | 229 | 1.6 | 3.2 | 0.00 | 1.88 | 0.00 | 96 | 1006.1 |
| 20260507004545 | 6 | 180 | 0.0 | 1.6 | 0.00 | 2.03 | 0.00 | 96 | 1006.0 |
| 20260507003528 | 6 | 250 | 1.6 | 4.8 | 0.00 | 2.08 | 0.00 | 95 | 1006.2 |
| 20260507002532 | 6 | 225 | 0.0 | 3.2 | 0.00 | 2.08 | 0.00 | 95 | 1006.2 |
| 20260507001518 | 6 | 225 | 0.0 | 3.2 | 0.00 | 2.08 | 0.00 | 95 | 1005.6 |
| 20260507000521 | 6 | 203 | 0.0 | 3.2 | 0.00 | 2.08 | 0.00 | 95 | 1005.7 |
| 20260506235525 | 6 | 0.0 | 0.0 | 0.00 | 2.08 | 0.00 | 95 | 1005.9 | |
| 20260506234549 | 7 | 0.0 | 0.0 | 0.00 | 2.13 | 0.00 | 94 | 1006.0 | |
| 20260506233532 | 7 | 201 | 1.6 | 4.8 | 0.00 | 2.13 | 0.00 | 94 | 1006.0 |
| 20260506232518 | 7 | 200 | 1.6 | 4.8 | 0.00 | 2.13 | 0.00 | 94 | 1006.0 |
| 20260506231521 | 7 | 0.0 | 0.0 | 0.00 | 2.13 | 0.00 | 94 | 1005.9 | |
| 20260506230525 | 7 | 135 | 1.6 | 3.2 | 0.00 | 2.13 | 0.00 | 94 | 1006.0 |
| 20260506225528 | 7 | 213 | 1.6 | 3.2 | 0.00 | 2.13 | 2.13 | 93 | 1005.9 |
| 20260506224532 | 7 | 189 | 1.6 | 3.2 | 0.03 | 2.13 | 2.13 | 93 | 1006.2 |
| 20260506223518 | 7 | 144 | 1.6 | 4.8 | 0.05 | 2.16 | 2.13 | 93 | 1006.2 |
| 20260506222521 | 7 | 146 | 0.0 | 3.2 | 0.05 | 2.16 | 2.13 | 93 | 1006.1 |
| 20260506221525 | 7 | 234 | 3.2 | 4.8 | 0.05 | 2.16 | 2.13 | 93 | 1006.0 |
| 20260506220529 | 7 | 221 | 3.2 | 4.8 | 0.05 | 2.26 | 2.13 | 93 | 1006.0 |
| 20260506215526 | 7 | 243 | 1.6 | 3.2 | 0.05 | 2.26 | 2.13 | 92 | 1005.9 |
| 20260506214518 | 7 | 264 | 3.2 | 4.8 | 0.03 | 2.24 | 2.11 | 92 | 1006.0 |
| 20260506213542 | 7 | 220 | 3.2 | 6.4 | 0.00 | 2.24 | 2.08 | 91 | 1005.9 |
| 20260506212519 | 7 | 227 | 3.2 | 4.8 | 0.00 | 2.24 | 2.08 | 91 | 1005.8 |
| 20260506211517 | 7 | 265 | 3.2 | 6.4 | 0.00 | 2.24 | 2.08 | 91 | 1005.9 |
| 20260506210555 | 7 | 263 | 3.2 | 4.8 | 0.00 | 2.24 | 2.08 | 91 | 1005.7 |
| 20260506205518 | 7 | 225 | 0.0 | 4.8 | 0.00 | 2.24 | 2.08 | 91 | 1006.2 |
| 20260506204542 | 7 | 285 | 3.2 | 4.8 | 0.00 | 2.24 | 2.08 | 90 | 1006.2 |
| 20260506203525 | 7 | 282 | 3.2 | 4.8 | 0.00 | 2.24 | 2.08 | 90 | 1006.4 |
| 20260506202529 | 8 | 284 | 4.8 | 8.0 | 0.00 | 2.24 | 2.08 | 90 | 1006.4 |
| 20260506201515 | 8 | 280 | 4.8 | 6.4 | 0.00 | 2.24 | 2.08 | 91 | 1006.0 |
| 20260506200519 | 8 | 286 | 3.2 | 4.8 | 0.00 | 2.26 | 2.08 | 92 | 1006.3 |
| 20260506195522 | 7 | 0.0 | 0.0 | 0.00 | 2.26 | 2.08 | 91 | 1006.0 | |
| 20260506194526 | 7 | 301 | 3.2 | 4.8 | 0.00 | 2.26 | 2.08 | 92 | 1006.6 |
| 20260506193529 | 7 | 296 | 3.2 | 4.8 | 0.00 | 2.26 | 2.08 | 92 | 1006.7 |
| 20260506192535 | 7 | 241 | 3.2 | 4.8 | 0.00 | 2.26 | 2.08 | 93 | 1006.8 |
| 20260506191519 | 7 | 280 | 3.2 | 4.8 | 0.05 | 2.26 | 2.08 | 93 | 1006.3 |
| 20260506190522 | 8 | 279 | 3.2 | 4.8 | 0.05 | 2.26 | 2.08 | 94 | 1006.3 |
| 20260506185526 | 7 | 255 | 1.6 | 4.8 | 0.08 | 2.26 | 2.08 | 94 | 1006.7 |
| 20260506184530 | 7 | 307 | 1.6 | 4.8 | 0.10 | 2.26 | 2.08 | 94 | 1006.5 |
| 20260506183515 | 7 | 305 | 3.2 | 4.8 | 0.15 | 2.26 | 2.08 | 94 | 1006.8 |
| 20260506182519 | 7 | 308 | 3.2 | 4.8 | 0.18 | 2.26 | 2.08 | 95 | 1007.1 |
| 20260506181522 | 7 | 281 | 3.2 | 4.8 | 0.15 | 2.21 | 2.03 | 95 | 1007.3 |
| 20260506180526 | 7 | 313 | 4.8 | 6.4 | 0.20 | 2.21 | 2.03 | 95 | 1007.4 |
| 20260506175529 | 7 | 250 | 3.2 | 4.8 | 0.20 | 2.18 | 2.01 | 95 | 1007.1 |
| 20260506174515 | 7 | 228 | 4.8 | 6.4 | 0.23 | 2.18 | 1.98 | 95 | 1007.5 |
| 20260506173519 | 7 | 308 | 3.2 | 3.2 | 0.20 | 2.13 | 1.93 | 95 | 1007.4 |
| 20260506172543 | 6 | 295 | 3.2 | 4.8 | 0.20 | 2.18 | 1.91 | 95 | 1007.4 |
| 20260506171520 | 6 | 260 | 3.2 | 4.8 | 0.20 | 2.29 | 1.88 | 95 | 1007.4 |
| 20260506170517 | 6 | 327 | 3.2 | 6.4 | 0.20 | 2.26 | 1.83 | 95 | 1008.0 |
| 20260506165535 | 6 | 297 | 4.8 | 6.4 | 0.23 | 2.24 | 1.80 | 95 | 1008.1 |
| 20260506164559 | 7 | 290 | 6.4 | 8.0 | 0.23 | 2.18 | 1.75 | 95 | 1008.0 |
| 20260506163522 | 7 | 302 | 4.8 | 6.4 | 0.25 | 2.16 | 1.73 | 95 | 1008.2 |
| 20260506162526 | 7 | 341 | 4.8 | 8.0 | 0.28 | 2.26 | 1.70 | 95 | 1008.3 |
| 20260506161530 | 7 | 317 | 4.8 | 8.0 | 0.33 | 2.62 | 1.68 | 95 | 1008.4 |
| 20260506160516 | 7 | 329 | 3.2 | 6.4 | 0.36 | 2.57 | 1.63 | 95 | 1008.6 |
| 20260506155539 | 7 | 309 | 4.8 | 8.0 | 0.36 | 2.51 | 1.57 | 95 | 1008.1 |
| 20260506154523 | 7 | 315 | 4.8 | 6.4 | 0.36 | 2.46 | 1.52 | 95 | 1008.6 |
| 20260506153546 | 7 | 304 | 6.4 | 8.0 | 0.36 | 2.41 | 1.47 | 95 | 1008.8 |
| 20260506152530 | 7 | 271 | 4.8 | 6.4 | 0.36 | 2.36 | 1.42 | 95 | 1008.8 |
| 20260506151516 | 7 | 273 | 3.2 | 4.8 | 0.33 | 2.29 | 1.35 | 95 | 1008.9 |
| 20260506150519 | 7 | 251 | 4.8 | 6.4 | 0.30 | 2.21 | 1.27 | 94 | 1008.5 |
| 20260506145523 | 7 | 283 | 4.8 | 8.0 | 0.30 | 2.16 | 1.22 | 94 | 1008.2 |
| 20260506144527 | 7 | 260 | 4.8 | 9.7 | 0.28 | 2.11 | 1.17 | 94 | 1008.5 |
| 20260506143530 | 7 | 308 | 6.4 | 9.7 | 0.25 | 2.06 | 1.12 | 94 | 1008.1 |
| 20260506142516 | 7 | 262 | 4.8 | 8.0 | 0.25 | 2.01 | 1.07 | 94 | 1008.1 |
| 20260506141520 | 7 | 261 | 6.4 | 8.0 | 0.20 | 1.96 | 1.02 | 94 | 1008.8 |
| 20260506140523 | 7 | 275 | 6.4 | 11.3 | 0.20 | 1.91 | 0.97 | 94 | 1007.9 |
| 20260506135527 | 7 | 261 | 6.4 | 11.3 | 0.20 | 1.85 | 0.91 | 94 | 1008.1 |
| 20260506134611 | 7 | 262 | 4.8 | 8.0 | 0.20 | 1.83 | 0.89 | 94 | 1007.9 |
| 20260506133516 | 7 | 297 | 8.0 | 11.3 | 0.20 | 1.80 | 0.86 | 94 | 1008.1 |
| 20260506132520 | 7 | 291 | 4.8 | 9.7 | 0.18 | 1.75 | 0.81 | 94 | 1008.2 |
| 20260506131523 | 7 | 266 | 6.4 | 9.7 | 0.20 | 1.75 | 0.81 | 94 | 1008.2 |
| 20260506130521 | 7 | 288 | 6.4 | 16.1 | 0.20 | 1.70 | 0.76 | 94 | 1008.0 |
| 20260506125519 | 7 | 280 | 6.4 | 11.3 | 0.18 | 1.65 | 0.71 | 93 | 1008.2 |
| 20260506124516 | 7 | 273 | 4.8 | 9.7 | 0.18 | 1.63 | 0.69 | 93 | 1008.1 |
| 20260506123540 | 7 | 280 | 6.4 | 9.7 | 0.15 | 1.60 | 0.66 | 93 | 1008.0 |
| 20260506122523 | 7 | 234 | 8.0 | 11.3 | 0.13 | 1.57 | 0.64 | 93 | 1007.9 |
| 20260506121527 | 8 | 279 | 6.4 | 9.7 | 0.10 | 1.55 | 0.61 | 93 | 1007.9 |
| 20260506120531 | 8 | 179 | 4.8 | 6.4 | 0.05 | 1.50 | 0.56 | 92 | 1008.1 |
| 20260506115516 | 8 | 212 | 4.8 | 9.7 | 0.03 | 1.47 | 0.53 | 92 | 1008.3 |
| 20260506114520 | 8 | 242 | 6.4 | 8.0 | 0.00 | 1.45 | 0.51 | 92 | 1008.0 |
| 20260506113544 | 9 | 228 | 6.4 | 9.7 | 0.00 | 1.45 | 0.51 | 91 | 1007.8 |
| 20260506112527 | 9 | 209 | 6.4 | 11.3 | 0.00 | 1.45 | 0.51 | 91 | 1007.6 |
| 20260506111531 | 9 | 227 | 6.4 | 9.7 | 0.00 | 1.45 | 0.51 | 91 | 1007.5 |
| 20260506110517 | 9 | 230 | 4.8 | 9.7 | 0.00 | 1.45 | 0.51 | 91 | 1007.1 |
| 20260506105520 | 9 | 192 | 4.8 | 9.7 | 0.00 | 1.45 | 0.51 | 91 | 1006.9 |
| 20260506104524 | 9 | 229 | 6.4 | 8.0 | 0.00 | 1.45 | 0.51 | 91 | 1006.5 |
| 20260506103528 | 9 | 204 | 4.8 | 8.0 | 0.00 | 1.45 | 0.51 | 91 | 1006.5 |
| 20260506102531 | 9 | 232 | 6.4 | 9.7 | 0.00 | 1.63 | 0.51 | 91 | 1006.5 |
| 20260506101517 | 10 | 213 | 6.4 | 8.0 | 0.00 | 1.63 | 0.51 | 91 | 1006.6 |
| 20260506100541 | 10 | 212 | 6.4 | 9.7 | 0.00 | 1.63 | 0.51 | 91 | 1006.5 |